Skip Navigation Links
NOAA logo - Click to go to the NOAA homepage
NOAA's National Weather Service
Alaska Aviation Weather Unit
  NWS logo - Click to go to the NWS homepage
Left Navbar Graphic     18 AKDT = 02 GMT

   
NOAA is celebrating 200 years of science, service, and stewardship. Visit the NOAA 200th celebration Web site to learn more.
USA.gov is the U.S. Government's official Web portal to all Federal, state and local government Web resources and services.
Facebook
NWS on Facebook

Important Change Regarding the AAWU Web Presence

 

Over the last several months, the AAWU has been working to navigate its webpages to a nationally supported server. Security, as well as other needs, have necessitated the change.  In the process, we have made an effort to enhance the functionality of our website, as well as some of our products. As of June 20, 2017, aawu.arh.noaa.gov will be discontinued. The new AAWU web address is weather.gov/aawu. It is now live and will run in-parallel with the old site until it is discontinued. Please send any feedback or questions regarding the new webpages to nws.ar.aawu.webauthors@noaa.gov.  Thank you for your patience during this time of transition.
AAWU Home :: Display TAF Add Bookmark
TAF PAKT 242340Z 2500/2524 32010KT P6SM SCT040
     FM250500 32005KT P6SM SCT040
     FM251200 32010KT P6SM BKN025 OVC040
     FM252100 33010KT P6SM SCT030 OVC050 AMD LTD TO CLD VIS AND
      WIND 2506/2515=
METAR PAKT 242053Z 32013KT 10SM BKN042 14/03 A3021=

METAR PAKT 242153Z 33010KT 10SM SCT045 15/03 A3021=

METAR PAKT 242253Z 32009KT 10SM CLR 16/04 A3020=

METAR PAKT 242353Z 30007KT 270V340 10SM CLR 16/04 A3018=

METAR PAKT 250053Z 32011KT 10SM CLR 16/04 A3017=

METAR PAKT 250153Z 32009KT 10SM CLR 16/03 A3016=


NOAA's National Weather Service
Alaska Aviation Weather Unit
6930 Sand Lake Road
Anchorage, AK 99502-1845
Disclaimer
Credits
Glossary
Privacy Policy
About Us
Career Opportunities
Contact AAWU Internet Services Site last modified: April, 17th 2012